CAPE
6 11 4 3 3 1 1 2 2 1 4 1 4 10 5 1 5 16 41 56 45 18 10 12 2 0 0 0 0 0 0 0
5 2 5 4 4 2 2 2 3 0 1 2 2 0 0 0 14 7 21 36 53 63 35 44 21 4 0 0 0 0 0 0
4 0 7 4 3 4 3 2 2 2 3 2 0 1 0 2 6 22 35 39 40 32 26 53 59 27 0 0 0 0 0 0
1 7 5 7 4 6 3 2 1 0 0 0 0 0 0 0 10 11 47 42 15 16 30 62 74 53 14 0 0 0 0 0
0 3 4 3 5 3 4 4 1 0 0 0 0 0 0 0 0 0 8 32 53 65 39 63 74 67 30 0 0 0 0 0
0 0 2 3 7 4 2 3 1 0 0 0 0 0 0 0 0 20 3 12 24 21 89 74 128 83 48 14 0 0 0 0
0 0 4 4 4 4 3 2 1 0 0 0 0 0 0 0 0 0 0 11 33 27 29 79 114 101 39 11 3 0 0 0
0 0 0 2 2 7 1 2 2 0 0 0 0 0 0 0 0 1 1 0 9 25 49 74 83 73 51 55 5 0 0 0
0 0 0 0 1 2 3 3 4 1 0 0 0 0 0 0 0 0 2 9 8 6 18 34 38 41 35 12 2 0 0 0
0 0 0 0 2 0 0 0 0 4 1 0 0 0 0 0 0 0 0 0 0 0 0 0 1 1 5 8 17 4 1 1
0 0 0 0 0 3 0 1 1 2 4 2 0 0 0 0 0 0 0 0 0 0 0 0 0 0 0 0 1 0 3 3
0 0 0 0 0 0 3 1 4 4 2 2 2 0 0 0 0 0 0 0 0 0 0 0 0 2 0 0 1 1 0 0
0 0 0 0 0 0 0 1 0 0 0 0 1 1 0 0 0 0 0 0 0 0 0 0 0 0 0 0 0 0 0 0
0 0 0 0 0 0 0 0 0 0 0 0 0 1 0 0 0 0 0 0 0 0 0 0 0 0 0 0 0 0 0 0
0 1 12 6 7 5 0 0 0 0 0 0 0 0 0 0 0 0 0 0 0 0 0 1 4 3 0 0 0 0 0 3
0 6 15 33 18 19 13 1 0 0 0 0 0 0 0 0 1 0 0 2 3 4 13 11 5 1 0 0 0 1 1 0
0 0 0 2 25 27 18 24 4 0 0 0 0 0 0 0 0 1 4 5 13 23 5 1 0 0 0 0 0 0 0 0
0 0 0 0 2 0 19 4 4 0 0 0 0 0 0 0 0 0 2 5 5 2 0 0 0 0 0 1 1 0 0 0
0 0 0 0 0 0 0 0 0 0 1 0 0 0 1 0 2 1 1 0 0 0 0 0 1 1 0 1 0 0 0 1
CIN
-1 0 -5 0 0 0 0 0 0 0 0 0 0 -29 -22 -43 -32 -90 -112 -141 -188 -200 -227 -244 -48 0 0 0 0 0 0 0
-1 -2 0 0 0 0 0 0 0 0 0 0 0 0 0 -1 -67 -110 -104 -120 -185 -183 -198 -193 -192 -195 0 0 0 0 0 0
0 0 0 0 0 0 0 0 0 0 0 -1 0 -1 -4 -54 -86 -74 -121 -152 -178 -191 -180 -170 -144 -151 -40 0 0 0 0 0
0 0 0 0 0 0 0 0 0 -1 -1 0 0 0 0 0 -40 -104 -70 -118 -179 -153 -117 -162 -142 -154 -164 0 0 0 0 0
0 0 0 0 0 0 0 0 0 0 0 0 0 0 0 0 0 -23 -154 -137 -141 -132 -138 -114 -126 -145 -160 0 0 0 0 0
0 0 0 -1 -4 0 0 0 0 0 0 0 0 0 0 0 0 -68 -156 -179 -164 -148 -97 -103 -77 -126 -137 -177 0 0 0 0
0 0 0 0 -1 0 0 0 0 0 0 0 0 0 0 0 0 0 -10 -146 -125 -80 -98 -98 -87 -83 -94 -165 -207 0 0 0
0 0 0 0 0 0 0 0 0 0 0 0 0 0 0 0 0 -32 -122 0 -64 -62 -48 -31 -41 -64 -85 -80 -84 0 0 0
0 0 0 0 0 0 0 0 0 0 0 0 0 0 0 0 0 -7 -58 -29 -31 -55 -56 -48 -58 -66 -70 -83 -112 0 0 0
0 0 0 0 0 0 0 0 0 0 0 0 0 0 0 0 0 0 0 0 0 0 0 0 -9 -8 -66 -68 -62 -84 -46 0
0 0 0 0 0 0 0 0 0 0 0 0 0 0 0 0 0 0 0 0 0 0 0 0 0 0 0 0 0 0 0 0
0 0 0 0 0 0 0 0 0 0 0 0 0 0 0 0 0 0 0 0 0 0 0 0 0 -108 0 0 0 0 0 0
0 0 0 0 0 0 0 0 0 0 0 0 0 0 0 0 0 0 0 0 0 0 0 0 -9 0 0 0 0 0 0 0
0 0 0 0 -84 0 0 0 0 0 0 0 0 0 0 0 0 0 0 0 0 0 0 0 0 0 0 0 0 0 0 0
0 -390 -581 -669 -723 -729 0 0 0 0 0 0 0 0 0 0 0 0 0 0 0 0 0 0 -70 0 0 0 0 0 0 0
0 -447 -539 -598 -645 -676 -709 -387 0 0 0 0 0 0 0 0 0 0 0 0 0 0 -90 -125 -41 0 0 0 0 0 0 0
0 0 0 -591 -636 -618 -674 -668 -698 0 0 0 0 0 0 0 0 0 0 0 -157 -109 0 0 0 0 0 0 0 0 0 0
0 0 0 0 -444 0 -657 -704 -689 -39 0 0 0 0 0 0 0 0 0 0 0 0 0 0 0 0 0 0 0 0 0 0
0 0 0 0 0 0 0 0 0 0 -266 0 0 0 0 0 0 0 0 0 0 0 0 0 0 0 0 0 0 0 0 0
Wind_Speed
7 3 5 5 5 5 5 5 8 7 6 7 8 9 7 6 5 7 10 9 12 10 8 10 10 8 9 9 10 7 7 7
6 6 7 7 7 8 7 7 8 7 6 6 6 8 7 6 6 8 9 10 11 10 8 10 9 10 9 11 8 9 5 6
9 9 8 9 8 8 8 9 6 7 7 3 4 4 4 5 5 8 9 12 11 8 9 9 11 8 10 10 9 5 3 8
13 12 10 9 10 10 9 11 8 7 9 7 5 5 4 5 8 7 10 11 11 8 11 8 9 9 9 10 8 11 7 8
14 14 13 12 11 10 11 12 10 8 11 9 13 7 8 5 8 6 7 9 8 9 7 9 9 8 9 10 9 7 7 9
17 15 13 12 12 12 11 11 10 10 10 11 10 8 6 3 5 10 8 6 7 6 7 8 12 9 9 8 10 12 8 6
16 14 14 13 11 12 12 13 11 9 8 10 13 11 10 7 6 5 4 6 6 10 9 8 10 11 11 10 11 13 11 10
17 18 17 17 16 15 13 15 15 13 11 11 11 11 12 13 12 9 9 8 8 10 12 12 10 11 11 11 12 13 13 12
19 20 17 18 18 17 16 17 18 17 16 15 14 13 9 10 11 9 8 9 10 12 12 13 12 12 11 12 9 10 11 11
20 20 19 19 19 20 19 18 17 18 17 16 16 14 15 12 13 11 9 10 9 12 12 11 13 14 15 13 10 12 12 13
15 17 19 17 18 18 17 16 17 17 17 17 15 16 16 15 13 15 15 13 13 12 11 12 13 13 13 13 11 12 12 11
15 15 15 15 14 16 17 17 19 18 18 17 18 17 18 16 14 15 15 15 15 14 14 14 14 13 12 11 12 12 13 14
14 13 14 16 16 17 18 18 19 18 18 18 18 16 16 17 18 17 15 16 15 15 15 15 15 12 10 11 12 14 16 15
12 14 16 17 18 18 18 18 19 18 17 16 17 17 18 18 16 15 15 16 16 14 14 14 12 12 11 16 16 15 16 17
10 13 15 15 16 17 18 18 18 17 18 17 17 17 17 15 15 15 14 14 14 15 14 15 14 14 15 14 13 14 14 14
11 12 14 15 16 16 16 17 17 17 17 17 17 13 13 14 14 14 14 14 14 14 13 13 13 13 9 11 12 13 13 12
9 11 13 15 16 16 14 14 15 15 16 16 14 13 13 13 14 14 13 14 14 12 12 12 12 9 11 13 10 8 10 11
11 11 9 7 9 8 10 12 13 15 14 13 12 12 12 11 10 11 11 12 10 10 10 7 5 3 4 7 5 2 3 6
11 4 6 7 5 7 7 7 8 9 8 7 7 7 6 5 5 5 1 4 5 5 7 7 8 9 9 9 13 9 10 10
Wind_Direction
239 194 173 152 148 120 106 108 117 94 80 75 105 110 107 116 150 153 151 152 148 148 148 150 159 165 172 147 161 170 176 162
211 190 164 148 152 138 136 137 138 130 127 113 115 130 127 138 154 140 149 156 145 147 148 152 163 183 181 151 160 169 156 168
210 204 177 163 162 162 154 145 151 142 148 117 99 118 116 118 141 156 155 151 136 142 155 163 179 178 177 169 172 156 159 186
205 196 192 166 167 173 158 158 154 146 141 120 95 80 90 143 161 151 147 143 148 144 185 166 187 181 191 183 181 183 181 198
201 199 185 186 177 166 165 162 158 149 156 159 166 154 166 172 165 151 135 139 136 150 176 189 191 191 190 198 195 197 189 198
194 199 194 186 176 170 164 162 166 162 168 166 166 169 173 116 137 160 153 139 143 133 187 200 202 199 210 202 199 210 211 201
194 193 187 183 180 177 168 170 169 166 172 169 180 182 182 166 162 170 156 154 167 193 204 205 212 209 210 211 209 210 213 222
192 192 191 187 183 182 179 180 181 176 183 185 184 190 193 190 190 193 175 188 195 200 206 212 217 214 214 215 216 219 216 216
195 195 196 189 189 188 186 188 192 188 187 194 199 196 200 203 205 205 210 209 207 202 211 218 222 223 223 220 222 223 217 216
197 195 199 192 189 192 193 193 197 199 197 196 200 202 209 210 213 217 218 221 225 216 213 220 229 229 228 226 229 235 229 230
199 203 205 202 189 186 191 193 197 198 201 205 206 207 208 210 211 217 219 223 224 226 230 229 233 233 231 231 234 240 228 232
194 207 209 208 196 188 190 192 195 198 200 200 205 206 208 208 211 217 218 224 227 230 232 236 238 240 233 229 234 234 226 231
185 199 199 201 203 195 196 197 201 199 199 200 206 206 205 208 213 214 211 218 219 224 226 232 234 229 212 210 227 227 223 227
177 182 198 203 203 199 199 201 206 200 199 200 203 204 203 208 213 215 212 219 224 228 229 233 233 224 221 231 238 238 231 230
200 186 198 204 203 204 200 203 203 201 202 204 209 211 210 212 210 216 219 222 231 234 236 238 236 234 236 229 227 234 233 235
206 212 197 200 201 205 200 203 199 196 201 207 215 215 215 213 212 216 220 224 228 230 234 237 239 237 236 229 226 229 236 241
229 204 203 197 199 201 199 194 194 192 201 209 211 209 206 207 209 214 216 221 228 227 231 234 241 238 235 221 226 231 236 232
238 230 211 215 196 188 191 176 175 186 197 202 201 202 211 215 211 217 225 232 232 228 236 241 258 321 302 240 237 303 84 97
225 150 133 112 101 110 111 129 157 168 171 163 164 175 176 183 201 218 124 55 69 68 60 57 61 30 27 93 90 82 72 62